Home > Time Zones > World Clock > Weather > Italy > Genoa > Past weeks

Flag for Italy Weather past 2 weeks in Genoa, Italy

Now
81 °F

Passing clouds.


Feels Like: 82 °F
Forecast: 73 / 87 °F
Wind: 14 mph from Southeast

Location: Genova / Sestri

Current Time: Jul 28, 2015 at 5:25:20 PM

Latest Report: Jul 28, 2015 at 4:50 PM


Visibility: N/A

Pressure: 29.77 "Hg

Humidity: 58%

Dew point: 64 °F

Location of GenoaLocation

Historic Weather in Genoa — Graph

°F

Genoa temperature yesterday

Maximum temperature yesterday: 84 °F (at 12:50 PM)
Minimum temperature yesterday: 77 °F (at 12:20 AM)
Average temperature yesterday: 81 °F

Past Weeks' High & Low Weather Summary

 TemperatureHumidityPressure
High88 °F (Jul 16, 3:20 PM)89% (Jul 23, 5:20 AM)30.09 "Hg (Jul 23, 5:20 AM)
Low73 °F (Jul 14, 6:20 AM)38% (Jul 26, 3:20 PM)29.68 "Hg (Jul 27, 2:50 PM)
Average81 °F62%29.90 "Hg
* Reported Jul 13 3:20 PM — Jul 28 3:50 PM, Genoa, Weather by CustomWeather, © 2015

Note: Actual official high and low records may vary slightly from our data, if they occured in-between our weather recording intervals... More about our weather records

Advertising

Genoa weather history for previous 24 hours

 ConditionsComfort  
Time TempWeatherWind HumidityBarometerVisibility
3:50 PM
Tue, Jul 28
82 °FPassing clouds.15 mph58%29.77 "HgN/A
3:20 PM81 °FPassing clouds.17 mph62%29.77 "HgN/A
2:50 PM82 °FPassing clouds.17 mph58%29.77 "HgN/A
2:20 PM82 °FSunny.20 mph58%29.74 "Hg10 mi
1:50 PM82 °FSunny.20 mph51%29.77 "Hg10 mi
1:20 PM82 °FSunny.21 mph51%29.74 "Hg10 mi
12:50 PM82 °FSunny.21 mph55%29.74 "Hg10 mi
12:20 PM82 °FSunny.20 mph55%29.77 "Hg10 mi
11:50 AM82 °FSunny.22 mph55%29.74 "Hg10 mi
11:20 AM82 °FPassing clouds.21 mph58%29.74 "HgN/A
10:50 AM82 °FPassing clouds.21 mph55%29.74 "HgN/A
10:20 AM82 °FPassing clouds.18 mph51%29.74 "HgN/A
9:50 AM82 °FPassing clouds.5 mph48%29.74 "HgN/A
9:20 AM82 °FPassing clouds.2 mph48%29.74 "HgN/A
8:50 AM82 °FSunny.2 mph45%29.74 "Hg10 mi
8:20 AM79 °FSunny.5 mph54%29.74 "Hg10 mi
7:50 AM75 °FSunny.6 mph61%29.74 "Hg10 mi
7:20 AM75 °FSunny.6 mph61%29.71 "Hg10 mi
6:50 AM73 °FClear.5 mph65%29.71 "Hg10 mi
6:20 AM73 °FClear.6 mph69%29.71 "Hg10 mi
5:50 AM73 °FClear.6 mph69%29.71 "Hg10 mi
5:20 AM73 °FClear.7 mph69%29.71 "Hg10 mi
4:50 AM73 °FClear.6 mph69%29.71 "Hg10 mi
4:20 AM73 °FPassing clouds.6 mph69%29.71 "HgN/A
3:50 AM75 °FPassing clouds.7 mph65%29.71 "HgN/A
3:20 AM75 °FPassing clouds.6 mph65%29.71 "HgN/A
2:50 AM75 °FPassing clouds.6 mph69%29.71 "HgN/A
2:20 AM75 °FPassing clouds.5 mph69%29.71 "HgN/A
1:20 AM77 °FPassing clouds.5 mph65%29.71 "HgN/A
12:50 AM77 °FPassing clouds.7 mph65%29.71 "HgN/A
12:20 AM79 °FPassing clouds.14 mph61%29.71 "HgN/A
11:50 PM
Mon, Jul 27
79 °FPassing clouds.15 mph61%29.71 "HgN/A
11:20 PM79 °FPassing clouds.20 mph65%29.71 "HgN/A
10:50 PM79 °FPassing clouds.17 mph65%29.71 "HgN/A
10:20 PM79 °FPassing clouds.20 mph65%29.71 "HgN/A
9:50 PM79 °FPartly sunny.20 mph70%29.71 "HgN/A
9:20 PM79 °FPartly sunny.20 mph65%29.68 "HgN/A
8:50 PM79 °FScattered clouds.16 mph70%29.68 "HgN/A
8:20 PM81 °FScattered clouds.16 mph66%29.68 "HgN/A
7:50 PM81 °FScattered clouds.21 mph62%29.68 "HgN/A
7:20 PM82 °FPassing clouds.21 mph62%29.68 "HgN/A
6:50 PM82 °FPassing clouds.22 mph62%29.68 "HgN/A
6:20 PM82 °FPassing clouds.22 mph58%29.68 "HgN/A
5:50 PM84 °FPassing clouds.21 mph55%29.68 "HgN/A
5:20 PM84 °FSunny.20 mph55%29.68 "Hg10 mi
Weather by CustomWeather, © 2015

See weather overviewHow to use our weather pages